DELTA 1 DEB, 10706

Orbit data source: Space-Track

DELTA 1 DEB, 10706 is space debris in SSO originally from a launch on Thu, 29 Jul 1976 UTC launched from the Air Force Western Test Range (AFWTR). Debris objects in space refer to the collection of defunct objects orbiting the Earth. Examples of debris include non-operational satellites, rocket bodies, and fragments generated from explosions, collisions, or faulty payload assembly.

Loading next visibility...
Identifier
10706, 1976-077AB
Orbit
SSO
Country
Flag of USUS
Related business
Manufacturer
Unknown
Mission
Spacecraft
Bus & Motor
Unknown
Mass
Unknown
Launch date (UTC)
1976-07-29 (49 years ago)
Launch vehicle
Unknown
Launch site
Air Force Western Test Range (AFWTR)
Object type
Payload
Rocket body
Debris
Shape & HBR
Unknown shape, 0.1 m
Radar Cross Section
Small (<0.1 m²)

Expand to show TLE details & history
Last TLE update: 19 hours ago

TLE from 19 hours ago
0 DELTA 1 DEB
1 10706U 76077AB  25291.16697697  .00000369  00000-0  12761-2 0  9998
2 10706 101.5451 141.6573 0391229 283.1293 199.0850 12.82988767288439
Epoch: 2025-10-18T04:00Z
TLE epoch observation values (Epoch: 2025-10-18T04:00:26.810Z)
Latitude
57.38558°
Longitude
-106.83195°
Altitude
1,625.138 km
Speed
6.931 km/s
True Right ascension
22h 40m 43s
True Declination
57° 14' 46"
Sunlit
Object was in daylight at epoch
Visualization orbit readout
Latitude
Unknown
Longitude
Unknown
Altitude
Unknown
Speed
Unknown
Apparent Right ascension
Unknown
Apparent Declination
Unknown
Sunlit
N/A
Visualization observer readout
Local Sidereal Time
18:12:49
Azimuth
Unknown
Elevation
Unknown
Doppler factor
Unknown
Orbital elements
Apogee altitude
1,628.408 km
Perigee altitude
1,025.517 km
Semi-major axis
7,705.1 km
Eccentricity
0.03912
Inclination
101.5451°
RAAN
141.6573°
Arg. of periapsis
283.1293°
True anomaly
197.68414°
Mean anomaly
199.085°
Eccentric anomaly
198.37826°
Mean motion
3.20904 °/min
Orbital period
112.18 mins
BSTAR
0.0012761
Loading maneuver chart data...
Computing Atmospheric mass density...
Loading historical data...
Loading historical data...
Loading historical data...
Loading historical data...
Loading historical data...
Loading historical data...
Loading historical data...

Documentation

Showing up to 5 results
|